Tracking 29892 objects as of 21-Nov-2024
HD Live streaming from Space Station
objects crossing your sky now

ATLAS 5 CENTAUR DEB

Track ATLAS 5 CENTAUR DEB now!


NORAD ID: 43955
Int'l Code: 2014-055J
Perigee: 7,164.4 km
Apogee: 34,535.5 km
Inclination: 20.2 °
Period: 744.9 minutes
Semi major axis: 27220 km
RCS: Unknown
Launch date: September 17, 2014
Source: United States (US)
Launch site: AIR FORCE EASTERN TEST RANGE (AFETR)

Note: This is SATELLITE DEBRIS
Your satellite tracking list
Your tracking list is empty




NASA's NSSDC Master Catalog

Two Line Element Set (TLE):
1 43955U 14055J   24316.13905449  .00000137  00000-0  00000-0 0  9993
2 43955  20.2094 162.4233 5027571 129.4373 287.1050  1.93307002 43704
Source of the keplerian elements: AFSPC